Location: El Águila
(10.4167°N, 66.7167°W)
Time: 06:12:57
(UTC+00:00)

YAOGAN 1 - Pass Details

Date: 02 October 2022
Orbit: 617 x 619 km, 97.9° (Epoch: 26 November)

Event Time Altitude Azimuth Distance (km) Brightness Sun altitude
Rises 23:44:55 0° 172° (S) 2,880 5.9 -22.5°
Reaches altitude 10° 23:47:06 10° 175° (S) 1,975 5.1 -23.1°
Maximum altitude 23:51:22 71° 259° (W) 654 2.7 -24.1°
Drops below altitude 10° 23:55:39 10° 343° (NNW) 1,975 5.3 -25.2°
Sets 23:57:51 0° 345° (NNW) 2,880 6.2 -25.7°
